Contract 0x7f9ed14a4d05de8a87257654135db1d9ce00fbba

Contract Overview

Balance:
0 MATIC
Txn Hash Method
Block
From
To
Value [Txn Fee]
0x37937e74ac483ca452c7837a9123b020fa582b90afa6874093dcd300d9cdca54Set Index263479162022-05-17 10:10:546 days 36 mins ago0x45b88ce0844f7bf2f6d466cf921a98f1fb487f7d IN  0x7f9ed14a4d05de8a87257654135db1d9ce00fbba0 MATIC0.000042132 1.50000001
0xe8a3bb703633cdc6fa4affb469f23855681c8eac80f9b80f3bc030f0ceb1bca3Set Index263469932022-05-17 8:47:226 days 1 hr ago0x45b88ce0844f7bf2f6d466cf921a98f1fb487f7d IN  0x7f9ed14a4d05de8a87257654135db1d9ce00fbba0 MATIC0.000042132 1.500000008
0x824457944def8ddf69027f5e44e8ee7b2c048eba8e0a5c83d9f8cbbc289a8a5bSet Index263469852022-05-17 8:46:426 days 2 hrs ago0x45b88ce0844f7bf2f6d466cf921a98f1fb487f7d IN  0x7f9ed14a4d05de8a87257654135db1d9ce00fbba0 MATIC0.000042132 1.500000009
0x9bdc463ab04d1495beaef2eff64b3844898908666d51fed21b798f33e9e224c1Set Index263409092022-05-16 22:49:576 days 11 hrs ago0x45b88ce0844f7bf2f6d466cf921a98f1fb487f7d IN  0x7f9ed14a4d05de8a87257654135db1d9ce00fbba0 MATIC0.000042132 1.500000008
0x77b5a29040c386d1a99f716d684e8300e656d1d997e9ab2b7cf093cc945d6adeSet Index263258592022-05-15 14:47:487 days 19 hrs ago0x45b88ce0844f7bf2f6d466cf921a98f1fb487f7d IN  0x7f9ed14a4d05de8a87257654135db1d9ce00fbba0 MATIC0.000042132 1.500000014
0x50de739322bf5fe484bdc177a41ec16739b32f35a6f7c01eb3e5f3f71a6ce653Set Index263247612022-05-15 12:18:517 days 22 hrs ago0x45b88ce0844f7bf2f6d466cf921a98f1fb487f7d IN  0x7f9ed14a4d05de8a87257654135db1d9ce00fbba0 MATIC0.000042132 1.500000008
0xd94a323591665d268f339de5eec776973fd5e439f02fbbddadcaf893c380a8dfSet Index263247532022-05-15 12:17:317 days 22 hrs ago0x45b88ce0844f7bf2f6d466cf921a98f1fb487f7d IN  0x7f9ed14a4d05de8a87257654135db1d9ce00fbba0 MATIC0.000067782 1.500000008
0x767c15f22d5a99dc198869f19c311e127df8cc10fb60507a047dc837e3baeb79Reset Index263247522022-05-15 12:17:217 days 22 hrs ago0x45b88ce0844f7bf2f6d466cf921a98f1fb487f7d IN  0x7f9ed14a4d05de8a87257654135db1d9ce00fbba0 MATIC0.000034647 1.500000008
0xe38f8d0d8ae04e8d26bdc08a4f6f7c2f36638cf705f4acd8d58bb553f1e2c1bbSet Index263246932022-05-15 12:11:007 days 22 hrs ago0x45b88ce0844f7bf2f6d466cf921a98f1fb487f7d IN  0x7f9ed14a4d05de8a87257654135db1d9ce00fbba0 MATIC0.000067782 1.500000008
0xbadc5dac81fb1e7bc10ce516694ae8f2bd10f9a6ae5f21f6c89e5444166f4bb2Reset Index263246912022-05-15 12:10:507 days 22 hrs ago0x45b88ce0844f7bf2f6d466cf921a98f1fb487f7d IN  0x7f9ed14a4d05de8a87257654135db1d9ce00fbba0 MATIC0.000034647 1.500000008
0x6af4e39c967e5db583b34fd4060cc8ef1bf2f140e7b7ff6ecc3bb9b27f6baa46Set Index263246602022-05-15 12:07:197 days 22 hrs ago0x45b88ce0844f7bf2f6d466cf921a98f1fb487f7d IN  0x7f9ed14a4d05de8a87257654135db1d9ce00fbba0 MATIC0.000067782 1.500000009
0x095e81888e5082b161fb2c8ba8603659db29d77c2427e8c9286181a6ef41a5d6Reset Index263246592022-05-15 12:07:097 days 22 hrs ago0x45b88ce0844f7bf2f6d466cf921a98f1fb487f7d IN  0x7f9ed14a4d05de8a87257654135db1d9ce00fbba0 MATIC0.000034647 1.500000009
0x1b3748228a38e9a5bbfee421f1ca51c24fb0cec5b187f9ed9902017eaf8323e6Set Index263246472022-05-15 12:05:097 days 22 hrs ago0x45b88ce0844f7bf2f6d466cf921a98f1fb487f7d IN  0x7f9ed14a4d05de8a87257654135db1d9ce00fbba0 MATIC0.000067782 1.500000009
0x116bc45c53a4c046da4e7bb9b3703a9df0cc1c21642ee7fc2810cc4e32d8e9a8Reset Index263246462022-05-15 12:04:597 days 22 hrs ago0x45b88ce0844f7bf2f6d466cf921a98f1fb487f7d IN  0x7f9ed14a4d05de8a87257654135db1d9ce00fbba0 MATIC0.000034647 1.500000009
0x15e49164a7c68901f5cbe4d6fc36d5e06efd3bcde659172400bcca1731c8bfd4Set Index263144672022-05-14 8:28:289 days 2 hrs ago0x45b88ce0844f7bf2f6d466cf921a98f1fb487f7d IN  0x7f9ed14a4d05de8a87257654135db1d9ce00fbba0 MATIC0.000042132 1.500000009
0xdf7d520be8724f4be54482aa6ec2b19a97dd08427c4a9357d56cf870c3042eeeSet Index263144662022-05-14 8:28:189 days 2 hrs ago0x45b88ce0844f7bf2f6d466cf921a98f1fb487f7d IN  0x7f9ed14a4d05de8a87257654135db1d9ce00fbba0 MATIC0.000042132 1.500000009
0xf70caac1317c93e54bc084212d94e578c0974648dc6bfd0c0fec1cf504ee37d9Set Index263144662022-05-14 8:28:189 days 2 hrs ago0x45b88ce0844f7bf2f6d466cf921a98f1fb487f7d IN  0x7f9ed14a4d05de8a87257654135db1d9ce00fbba0 MATIC0.000042132 1.500000009
0xcdec25396866d247479448978692272ac1a61c83cb568e07c3451109a1ea100cSet Index263144662022-05-14 8:28:189 days 2 hrs ago0x45b88ce0844f7bf2f6d466cf921a98f1fb487f7d IN  0x7f9ed14a4d05de8a87257654135db1d9ce00fbba0 MATIC0.000042132 1.500000009
0x2789f2fc4b1403bfc42a033f10c78019747c5a046bfc3a9377c4cbf81244109bSet Index263144652022-05-14 8:28:089 days 2 hrs ago0x45b88ce0844f7bf2f6d466cf921a98f1fb487f7d IN  0x7f9ed14a4d05de8a87257654135db1d9ce00fbba0 MATIC0.000042132 1.500000009
0x6e581921d11c8b710eb48b4802e6e57fd5bc9bd9ae24d58b7c90ca64bdd26a2cSet Index263144652022-05-14 8:28:089 days 2 hrs ago0x45b88ce0844f7bf2f6d466cf921a98f1fb487f7d IN  0x7f9ed14a4d05de8a87257654135db1d9ce00fbba0 MATIC0.000042132 1.500000009
0xdbd2a2dd290bca7e907b88a145e566c3c1809f1efcad2846d6d6c335b53692dbSet Index263144642022-05-14 8:27:589 days 2 hrs ago0x45b88ce0844f7bf2f6d466cf921a98f1fb487f7d IN  0x7f9ed14a4d05de8a87257654135db1d9ce00fbba0 MATIC0.000042132 1.500000009
0xe8f6240b3f63958cb316bfe36bff774a9bdc172c60e98f11902eb16e2e7acdbdSet Index263144642022-05-14 8:27:589 days 2 hrs ago0x45b88ce0844f7bf2f6d466cf921a98f1fb487f7d IN  0x7f9ed14a4d05de8a87257654135db1d9ce00fbba0 MATIC0.000042132 1.500000009
0x57b436fd8a3643f3ca3ca1f6b18c6660b277ea54fd645da3c2724040ce8ac088Set Index263144642022-05-14 8:27:589 days 2 hrs ago0x45b88ce0844f7bf2f6d466cf921a98f1fb487f7d IN  0x7f9ed14a4d05de8a87257654135db1d9ce00fbba0 MATIC0.000042132 1.500000009
0x2b3e1ef3d92812cd7379889b8e86dd44fe3905c439ce80c61719f1f13c331be8Set Index263144632022-05-14 8:27:489 days 2 hrs ago0x45b88ce0844f7bf2f6d466cf921a98f1fb487f7d IN  0x7f9ed14a4d05de8a87257654135db1d9ce00fbba0 MATIC0.000042132 1.500000009
0x0455e2eff0781cd2d76fc2fb9cc95ae6b388601458654eae4190cd718f00477fSet Index263144632022-05-14 8:27:489 days 2 hrs ago0x45b88ce0844f7bf2f6d466cf921a98f1fb487f7d IN  0x7f9ed14a4d05de8a87257654135db1d9ce00fbba0 MATIC0.000042132 1.500000009
[ Download CSV Export 
Parent Txn Hash Block From To Value
Loading
Are you the contract creator? Verify and Publish your contract source code today!

Decompile ByteCode
0x608060405234801561001057600080fd5b50600436106100415760003560e01c806328d969a51461004657806381045ead14610050578063b49bbaa21461006e575b600080fd5b61004e610078565b005b6100586100bc565b6040516100659190610160565b60405180910390f35b6100766100c5565b005b600080819055507f545708455c270e9b3c87450eb003619f649b6bc30eec72afd5fee17765f512d3336000546040516100b2929190610137565b60405180910390a1565b60008054905090565b6000808154809291906100d7906101b7565b91905055507fdf50c7bb3b25f812aedef81bc334454040e7b27e27de95a79451d663013b7e173360005460405161010f929190610137565b60405180910390a1565b6101228161017b565b82525050565b610131816101ad565b82525050565b600060408201905061014c6000830185610119565b6101596020830184610128565b9392505050565b60006020820190506101756000830184610128565b92915050565b60006101868261018d565b9050919050565b600073ffffffffffffffffffffffffffffffffffffffff82169050919050565b6000819050919050565b60006101c2826101ad565b91507fffffffffffffffffffffffffffffffffffffffffffffffffffffffffffffffff8214156101f5576101f4610200565b5b600182019050919050565b7f4e487b7100000000000000000000000000000000000000000000000000000000600052601160045260246000fdfea26469706673582212200786e51083cc923b90263c2652f6f4e50d03655beeeb1f8382b55e4d2e5315cc64736f6c63430008040033
Block Transaction Gas Used Reward
Age Block Fee Address BC Fee Address Voting Power Jailed Incoming
Block Uncle Number Difficulty Gas Used Reward
Loading